Flag for Germany Weather past 2 weeks in Hockenheim, Baden-Württemberg, Germany

Now
72 °F

Passing clouds.


Feels Like: 77 °F
Forecast: 49 / 70 °F
Wind: 10 mph from West

Location: Baden Wurttemberg - Neuostheim

Current Time: May 28, 2015 at 7:21:04 PM

Latest Report: May 28, 2015 at 6:50 PM


Visibility: N/A

Pressure: 29.92 "Hg

Humidity: 38%

Dew point: 45 °F

Location of HockenheimLocation

Historic Weather in Hockenheim — Graph

°F

Hockenheim temperature yesterday

Maximum temperature yesterday: 61 °F (at 5:20 PM)
Minimum temperature yesterday: 46 °F (at 5:50 AM)
Average temperature yesterday: 55 °F

Past Weeks' High & Low Weather Summary

 TemperatureHumidityPressure
High73 °F (May 18, 3:50 PM)100% (May 15, 5:50 AM)30.33 "Hg (May 15, 5:50 AM)
Low41 °F (May 22, 5:20 AM)25% (May 18, 6:20 PM)29.71 "Hg (May 18, 6:50 PM)
Average61 °F52%30.06 "Hg
* Reported May 13 5:20 PM — May 28 5:50 PM, Hockenheim, Weather by CustomWeather, © 2015

Note: Actual official high and low records may vary slightly from our data, if they occured in-between our weather recording intervals... More about our weather records

Advertising

Hockenheim weather history for previous 24 hours

 ConditionsComfort  
Time TempWeatherWind HumidityBarometerVisibility
5:50 PM
Thu, May 28
72 °FPassing clouds.8 mph36%29.95 "HgN/A
5:20 PM70 °FPassing clouds.8 mph38%29.95 "HgN/A
4:50 PM70 °FPassing clouds.9 mph38%29.95 "HgN/A
4:20 PM72 °FPassing clouds.10 mph38%29.95 "HgN/A
3:50 PM70 °FPassing clouds.8 mph40%29.98 "HgN/A
3:20 PM70 °FPassing clouds.12 mph38%29.98 "HgN/A
2:50 PM68 °FPassing clouds.13 mph40%29.98 "HgN/A
2:20 PM70 °FPassing clouds.10 mph40%30.01 "HgN/A
1:50 PM68 °FPassing clouds.12 mph43%30.01 "HgN/A
1:20 PM68 °FPassing clouds.12 mph43%30.01 "HgN/A
12:50 PM66 °FPassing clouds.12 mph43%30.04 "HgN/A
12:20 PM66 °FPassing clouds.9 mph46%30.04 "HgN/A
11:50 AM63 °FPassing clouds.9 mph52%30.04 "HgN/A
11:20 AM61 °FPassing clouds.10 mph55%30.07 "HgN/A
10:50 AM57 °FPassing clouds.10 mph59%30.07 "HgN/A
10:20 AM57 °FPassing clouds.8 mph63%30.07 "HgN/A
9:50 AM55 °FPassing clouds.10 mph63%30.09 "HgN/A
9:20 AM55 °FSunny.8 mph63%30.09 "Hg10 mi
8:50 AM54 °FPassing clouds.7 mph63%30.09 "HgN/A
8:20 AM52 °FPassing clouds.8 mph67%30.09 "HgN/A
7:50 AM50 °FPassing clouds.7 mph71%30.09 "HgN/A
7:20 AM50 °FPassing clouds.6 mph71%30.09 "HgN/A
6:50 AM48 °FSunny.6 mph71%30.09 "Hg10 mi
6:20 AM46 °FPassing clouds.5 mph76%30.09 "HgN/A
5:50 AM46 °FClear.3 mph76%30.09 "Hg10 mi
5:20 AM45 °FPassing clouds.5 mph81%30.09 "HgN/A
8:50 PM
Wed, May 27
57 °FSunny.3 mph48%30.18 "Hg10 mi
8:20 PM59 °FSunny.3 mph42%30.18 "Hg10 mi
7:50 PM59 °FPassing clouds.6 mph42%30.18 "HgN/A
7:20 PM59 °FPassing clouds.7 mph39%30.21 "HgN/A
Weather by CustomWeather, © 2015

See weather overviewHow to use our weather pages